Regional Weather Roundup
Issued by NWS

Home | Current Version | Previous Version | Text Only | Print | Product List | Glossary Off
Versions: 1 2 3 4 5 6 7 8 9 10 11 12 13 14 15 16 17 18 19 20 21 22 23 24 25 26 27 28 29 30 31 32 33 34 35 36 37 38 39 40 41 42 43 44 45 46 47 48 49 50

356
ASUS44 KJAN 191610
RWRMS

MISSISSIPPI HOURLY WEATHER ROUNDUP
NATIONAL WEATHER SERVICE JACKSON MS
1100 AM CDT TUE AUG 19 2014

NOTE: "FAIR: INDICATES FEW OR NO CLOUDS BELOW 12,000 FEET WITH NO
SIGNIFICANT WEATHER AND/OR OBSTRUCTIONS TO VISIBILITY.

MSZ001>002-007>008-010>013-018>021-025>028-034>036-191700-
NORTHWEST MISSISSIPPI

CITY           SKY/WX    TMP DP  RH WIND       PRES   REMARKS
CLARKSDALE     FAIR      84  75  74 CALM      29.95S HX  92
CLEVELAND      FAIR      85  78  78 SW12      29.95S HX  97
GREENWOOD      MOSUNNY   85  74  69 VRB7      29.96S HX  92
GREENVILLE       N/A    N/A N/A N/A MISG      29.95S
GRENADA        FAIR      82  73  74 W6        29.97R
OLIVE BRANCH   PTSUNNY   82  73  74 SW12      29.94R
OXFORD         FAIR      82  68  61 SW9       29.98R
TUNICA         MOSUNNY   81  70  69 W8        29.96R
$$

MSZ003>006-009-014>017-022>024-029>033-037>039-191700-
NORTHEAST MISSISSIPPI

CITY           SKY/WX    TMP DP  RH WIND       PRES   REMARKS
BELMONT        FAIR      81  74  77 SW5       29.96F
COLUMBUS AFB   SUNNY     84  70  64 VRB2      29.97R
CORINTH        FAIR      84  72  65 W7        29.93F
GOLDN TRIANGLE MOSUNNY   84  72  65 W5        29.97R
STARKVILLE     FAIR      86  72  62 W5        29.96S HX  92
TUPELO         SUNNY     84  70  62 CALM      29.95S
$$

MSZ040-058-191700-
CENTRAL MISSISSIPPI

CITY           SKY/WX    TMP DP  RH WIND       PRES   REMARKS
JACKSON INTL   MOSUNNY   86  74  67 W6        30.00S HX  94
JACKSON HAWKNS MOSUNNY   87  75  67 W10       30.00S HX  96
MERIDIAN KEY   MOSUNNY   87  71  58 W12G20    30.00R HX  93
MERIDIAN NAS   PTSUNNY   86  75  69 SW9       29.99R HX  95
RAYMOND        FAIR      86  81  84 W8        30.00S HX 102
VICKSBURG      MOSUNNY   87  76  69 VRB6      29.99S HX  97
$$

MSZ059>079-191700-
SOUTH MISSISSIPPI

CITY           SKY/WX    TMP DP  RH WIND       PRES   REMARKS
BROOKHAVEN     FAIR      84  75  74 W9        30.04S HAZE    HX  92
COLUMBIA       FAIR      88  77  70 MISG      30.01S HX 100
HATTIESBURG    MOSUNNY   88  74  63 W9        30.02S HX  96
MCCOMB         MOSUNNY   87  73  62 SW9       30.02F HX  94
NATCHEZ        MOSUNNY   84  77  79 SW9       30.02S HX  94
PINE BELT      MOSUNNY   86  73  66 W7        30.03S HX  93
$$

MSZ080>082-191700-
COASTAL MISSISSIPPI

CITY           SKY/WX    TMP DP  RH WIND       PRES   REMARKS
BAY ST LOUIS   MOSUNNY  N/A N/A N/A W6        30.02S
BILOXI         MOSUNNY   90  76  64 SW7       30.02S HX 102
PASCAGOULA     MOSUNNY   87  74  64 W6        30.03R HX  95
GULFPORT       MOSUNNY   89  74  60 W9        30.02R HX  98
$$



USA.gov is the U.S. government's official web portal to all federal, state and local government web resources and services.